Alva, OK

11:22 PM CST on November 18, 2017 (GMT -0600)
Alva Regional

Weather History for KAVK - January, 2013

Change the Weather History Date:

Friday, January 18, 2013

  Actual Average Record
Temperature  
Mean Temperature 45 °F -  
Max Temperature 62 °F 46 °F 72 °F (1950)
Min Temperature 28 °F 24 °F 6 °F (1977)
Degree Days  
Heating Degree Days 20    
Moisture  
Dew Point 29 °F    
Average Humidity 58    
Maximum Humidity 87    
Minimum Humidity 27    
Precipitation  
Precipitation 0.00 in - - ()
Sea Level Pressure  
Sea Level Pressure 30.23 in    
Wind  
Wind Speed 15 mph (SSW)    
Max Wind Speed 31 mph    
Max Gust Speed 40 mph    
Visibility 10 miles    
Events      
Averages and records for this station are not official NWS values.
T = Trace of Precipitation, MM = Missing Value Source: NWS Daily Summary

Daily Weather History Graph

Daily Weather History Graph

Search for Another Location

Airport or City:

Trip Planner

Search our weather history database for the weather conditions in past years. The results will help you decide how hot, cold, wet, or windy it might be!

Date:

Astronomy

Jan. 18, 2013 Rise Set
Actual Time 7:45 AM CST 5:45 PM CST
Civil Twilight 7:17 AM CST 6:13 PM CST
Nautical Twilight 6:45 AM CST 6:45 PM CST
Astronomical Twilight 6:14 AM CST 7:16 PM CST
Moon 11:37 AM CST (1/18) 12:25 AM CST (1/18)
Length of Visible Light 10h 56m
Length of Day
10h 00m
Waxing Crescent, 47% of the Moon is Illuminated
Jan 18
Waxing Crescent
Jan 18
First Quarter
Jan 26
Full
Feb 3
Last Quarter
Feb 10
New

Hourly Weather History & Observations

Time (CST) Temp. Windchill Dew Point Humidity Pressure Visibility Wind Dir Wind Speed Gust Speed Precip Events Conditions
12:10 AM 32.0 °F 23.6 °F 26.6 °F 80% 30.42 in 10.0 mi South 10.4 mph - N/A   Clear
12:30 AM 32.0 °F 23.0 °F 24.8 °F 75% 30.42 in 10.0 mi South 11.5 mph - N/A   Clear
12:50 AM 32.0 °F 23.0 °F 26.6 °F 80% 30.42 in 10.0 mi South 11.5 mph - N/A   Clear
1:10 AM 28.4 °F 19.1 °F 24.8 °F 86% 30.42 in 10.0 mi SSW 10.4 mph - N/A   Clear
1:30 AM 28.4 °F 18.5 °F 24.8 °F 86% 30.41 in 10.0 mi SSW 11.5 mph - N/A   Clear
1:50 AM 28.4 °F 19.1 °F 24.8 °F 86% 30.41 in 10.0 mi SSW 10.4 mph - N/A   Clear
2:10 AM 28.4 °F 19.7 °F 24.8 °F 86% 30.41 in 10.0 mi SSW 9.2 mph - N/A   Clear
2:50 AM 30.2 °F 21.3 °F 26.6 °F 86% 30.40 in 10.0 mi SSW 10.4 mph - N/A   Clear
3:10 AM 32.0 °F 22.5 °F 26.6 °F 80% 30.39 in 10.0 mi South 12.7 mph - N/A   Clear
3:30 AM 32.0 °F 22.5 °F 26.6 °F 80% 30.38 in 10.0 mi South 12.7 mph - N/A   Clear
3:50 AM 32.0 °F 23.0 °F 26.6 °F 80% 30.37 in 10.0 mi South 11.5 mph - N/A   Clear
4:10 AM 32.0 °F 23.6 °F 26.6 °F 80% 30.36 in 10.0 mi SSW 10.4 mph - N/A   Clear
4:30 AM 32.0 °F 23.0 °F 28.4 °F 87% 30.35 in 10.0 mi SSW 11.5 mph - N/A   Clear
4:50 AM 32.0 °F 23.0 °F 28.4 °F 87% 30.35 in 10.0 mi SSW 11.5 mph - N/A   Clear
5:10 AM 32.0 °F 23.0 °F 26.6 °F 80% 30.34 in 10.0 mi SSW 11.5 mph - N/A   Clear
5:30 AM 32.0 °F 23.6 °F 26.6 °F 80% 30.34 in 10.0 mi South 10.4 mph - N/A   Clear
5:50 AM 32.0 °F 23.6 °F 28.4 °F 87% 30.33 in 10.0 mi South 10.4 mph - N/A   Clear
6:10 AM 32.0 °F 25.6 °F 26.6 °F 80% 30.33 in 10.0 mi South 6.9 mph - N/A   Clear
6:50 AM 32.0 °F 24.2 °F 26.6 °F 80% 30.32 in 10.0 mi South 9.2 mph - N/A   Clear
7:10 AM 30.2 °F 22.6 °F 26.6 °F 86% 30.32 in 10.0 mi SSW 8.1 mph - N/A   Clear
7:30 AM 33.8 °F 24.8 °F 28.4 °F 81% 30.32 in 10.0 mi SSW 12.7 mph - N/A   Clear
7:50 AM 35.6 °F 26.6 °F 28.4 °F 75% 30.31 in 10.0 mi SSW 13.8 mph - N/A   Clear
8:10 AM 37.4 °F 28.2 °F 28.4 °F 70% 30.31 in 10.0 mi SW 16.1 mph - N/A   Clear
8:30 AM 39.2 °F 29.8 °F 30.2 °F 70% 30.31 in 10.0 mi SW 18.4 mph - N/A   Clear
8:50 AM 39.2 °F 30.5 °F 30.2 °F 70% 30.31 in 10.0 mi SSW 16.1 mph - N/A   Clear
9:10 AM 41.0 °F 32.8 °F 32.0 °F 70% 30.32 in 10.0 mi SW 16.1 mph 21.9 mph N/A   Clear
9:50 AM 46.4 °F 38.5 °F 32.0 °F 57% 30.32 in 10.0 mi SW 21.9 mph 29.9 mph N/A   Clear
10:10 AM 48.2 °F - 30.2 °F 50% 30.32 in 10.0 mi SW 23.0 mph 32.2 mph N/A   Clear
10:30 AM 50.0 °F - 30.2 °F 47% 30.32 in 10.0 mi SW 26.5 mph 33.4 mph N/A   Clear
10:50 AM 51.8 °F - 28.4 °F 41% 30.31 in 10.0 mi SW 27.6 mph 40.3 mph N/A   Clear
11:10 AM 53.6 °F - 28.4 °F 38% 30.30 in 10.0 mi SSW 26.5 mph 35.7 mph N/A   Clear
11:30 AM 53.6 °F - 28.4 °F 38% 30.29 in 10.0 mi SW 25.3 mph 36.8 mph N/A   Clear
11:50 AM 55.4 °F - 30.2 °F 38% 30.27 in 10.0 mi SW 24.2 mph 38.0 mph N/A   Clear
12:10 PM 55.4 °F - 30.2 °F 38% 30.25 in 10.0 mi SSW 25.3 mph 33.4 mph N/A   Clear
12:30 PM 55.4 °F - 28.4 °F 36% 30.23 in 10.0 mi SW 29.9 mph 36.8 mph N/A   Clear
12:55 PM 57.2 °F - 28.4 °F 33% 30.20 in 10.0 mi SW 31.1 mph 35.7 mph N/A   Clear
1:10 PM 57.2 °F - 28.4 °F 33% 30.19 in 10.0 mi SSW 26.5 mph 34.5 mph N/A   Clear
1:30 PM 59.0 °F - 30.2 °F 34% 30.17 in 10.0 mi SSW 26.5 mph 34.5 mph N/A   Clear
1:50 PM 59.0 °F - 30.2 °F 34% 30.17 in 10.0 mi SSW 24.2 mph 34.5 mph N/A   Clear
2:15 PM 59.0 °F - 28.4 °F 31% 30.15 in 10.0 mi SSW 23.0 mph 38.0 mph N/A   Clear
2:30 PM 60.8 °F - 28.4 °F 29% 30.14 in 10.0 mi SW 29.9 mph 36.8 mph N/A   Clear
2:50 PM 62.6 °F - 30.2 °F 30% 30.14 in 10.0 mi SW 28.8 mph 35.7 mph N/A   Clear
3:10 PM 62.6 °F - 30.2 °F 30% 30.13 in 10.0 mi SSW 24.2 mph 33.4 mph N/A   Clear
3:30 PM 62.6 °F - 30.2 °F 30% 30.12 in 10.0 mi SW 24.2 mph 33.4 mph N/A   Clear
3:50 PM 62.6 °F - 28.4 °F 27% 30.12 in 10.0 mi SW 25.3 mph 33.4 mph N/A   Clear
4:10 PM 62.6 °F - 30.2 °F 30% 30.12 in 10.0 mi SW 21.9 mph 31.1 mph N/A   Clear
4:30 PM 60.8 °F - 30.2 °F 31% 30.11 in 10.0 mi SSW 21.9 mph 31.1 mph N/A   Clear
4:50 PM 59.0 °F - 30.2 °F 34% 30.11 in 10.0 mi SSW 21.9 mph 28.8 mph N/A   Clear
5:10 PM 59.0 °F - 30.2 °F 34% 30.11 in 10.0 mi SSW 17.3 mph 25.3 mph N/A   Clear
5:30 PM 57.2 °F - 30.2 °F 36% 30.11 in 10.0 mi SSW 17.3 mph - N/A   Clear
5:50 PM 55.4 °F - 30.2 °F 38% 30.11 in 10.0 mi SSW 15.0 mph - N/A   Clear
6:10 PM 53.6 °F - 30.2 °F 41% 30.11 in 10.0 mi SSW 17.3 mph - N/A   Clear
6:30 PM 51.8 °F - 30.2 °F 44% 30.12 in 10.0 mi SSW 13.8 mph - N/A   Partly Cloudy
6:50 PM 48.2 °F - 30.2 °F 50% 30.12 in 10.0 mi SSW 15.0 mph - N/A   Partly Cloudy
7:10 PM 48.2 °F - 30.2 °F 50% 30.12 in 10.0 mi South 11.5 mph - N/A   Partly Cloudy
7:30 PM 46.4 °F 40.7 °F 32.0 °F 57% 30.12 in 10.0 mi South 12.7 mph - N/A   Partly Cloudy
7:50 PM 44.6 °F 38.4 °F 30.2 °F 57% 30.12 in 10.0 mi South 12.7 mph - N/A   Partly Cloudy
8:10 PM 44.6 °F 38.4 °F 32.0 °F 61% 30.12 in 10.0 mi South 12.7 mph - N/A   Partly Cloudy
8:30 PM 46.4 °F 40.7 °F 32.0 °F 57% 30.12 in 10.0 mi South 12.7 mph - N/A   Clear
8:50 PM 46.4 °F 40.4 °F 32.0 °F 57% 30.12 in 10.0 mi SSW 13.8 mph - N/A   Partly Cloudy
9:10 PM 46.4 °F 39.8 °F 32.0 °F 57% 30.12 in 10.0 mi SSW 16.1 mph - N/A   Partly Cloudy
9:30 PM 46.4 °F 40.7 °F 32.0 °F 57% 30.11 in 10.0 mi SSW 12.7 mph - N/A   Scattered Clouds
9:50 PM 46.4 °F 40.4 °F 32.0 °F 57% 30.11 in 10.0 mi SSW 13.8 mph - N/A   Mostly Cloudy
10:10 PM 44.6 °F 37.8 °F 32.0 °F 61% 30.11 in 10.0 mi SSW 15.0 mph - N/A   Mostly Cloudy
10:30 PM 46.4 °F 40.1 °F 32.0 °F 57% 30.10 in 10.0 mi SSW 15.0 mph - N/A   Overcast
10:50 PM 44.6 °F 38.4 °F 32.0 °F 61% 30.10 in 10.0 mi SSW 12.7 mph - N/A   Mostly Cloudy
11:10 PM 42.8 °F 35.8 °F 32.0 °F 66% 30.10 in 10.0 mi SSW 13.8 mph - N/A   Mostly Cloudy
11:30 PM 42.8 °F 36.2 °F 32.0 °F 66% 30.09 in 10.0 mi SSW 12.7 mph - N/A   Mostly Cloudy
11:50 PM 44.6 °F 37.4 °F 32.0 °F 61% 30.08 in 10.0 mi SSW 16.1 mph - N/A   Mostly Cloudy